Flag for Taiwan Weather past 2 weeks in Taipei, Taiwan

Now
86 °F

Passing clouds.


Feels Like: 91 °F
Forecast: 78 / 85 °F
Wind: 18 mph from East

Location: Sungshan / Taipei

Current Time: Sep 21, 2014 at 2:49:27 AM

Latest Report: Sep 21, 2014 at 2:00 AM


Visibility: N/A

Pressure: 29.53 "Hg

Humidity: 59%

Dew point: 70 °F

Location of TaipeiLocation

Historic Weather in Taipei — Graph

°F

Taipei temperature yesterday

Maximum temperature yesterday: 97 °F (at 11:50 AM)
Minimum temperature yesterday: 84 °F (at 12:00 AM)
Average temperature yesterday: 89 °F

Past Weeks' High & Low Weather Summary

 TemperatureHumidityPressure
High97 °F (Sep 16, 10:30 AM)89% (Sep 11, 6:00 AM)29.95 "Hg (Sep 11, 6:00 AM)
Low79 °F (Sep 11, 6:00 AM)39% (Sep 16, 10:30 AM)29.50 "Hg (Sep 20, 2:30 PM)
Average87 °F64%29.76 "Hg
* Reported Sep 5 9:00 PM — Sep 20 9:30 PM, Taipei, Weather by CustomWeather, © 2014

Note: Actual official high and low records may vary slightly from our data, if they occured in-between our weather recording intervals... More about our weather records

Advertising

Taipei weather history for previous 24 hours

 ConditionsComfort  
Time TempWeatherWind HumidityBarometerVisibility
9:30 PM
Sep 20
86 °FPassing clouds.15 mph62%29.59 "HgN/A
9:00 PM86 °FPassing clouds.15 mph62%29.56 "HgN/A
8:30 PM86 °FPassing clouds.16 mph62%29.56 "HgN/A
8:00 PM86 °FPassing clouds.15 mph62%29.56 "HgN/A
7:30 PM86 °FPassing clouds.15 mph59%29.56 "HgN/A
7:00 PM86 °FPassing clouds.16 mph62%29.56 "HgN/A
6:56 PM86 °FPassing clouds.16 mph62%29.56 "HgN/A
6:30 PM86 °FPassing clouds.16 mph62%29.53 "HgN/A
6:00 PM88 °FPassing clouds.15 mph59%29.56 "HgN/A
5:30 PM88 °FScattered clouds.14 mph59%29.56 "HgN/A
5:00 PM88 °FScattered clouds.17 mph55%29.53 "HgN/A
4:30 PM90 °FScattered clouds.17 mph52%29.53 "HgN/A
4:00 PM91 °FScattered clouds.18 mph52%29.53 "HgN/A
3:30 PM91 °FScattered clouds.16 mph49%29.53 "HgN/A
3:00 PM91 °FScattered clouds.14 mph52%29.53 "HgN/A
2:30 PM91 °FScattered clouds.16 mph52%29.50 "HgN/A
2:00 PM91 °FPartly sunny.20 mph52%29.53 "HgN/A
1:30 PM93 °FPartly sunny.21 mph47%29.53 "HgN/A
1:00 PM95 °FScattered clouds.23 mph41%29.53 "HgN/A
12:30 PM95 °FScattered clouds.24 mph41%29.53 "HgN/A
12:00 PM95 °FScattered clouds.18 mph41%29.53 "HgN/A
11:50 AM97 °FScattered clouds.16 mph39%29.53 "HgN/A
11:30 AM95 °FScattered clouds.18 mph44%29.56 "HgN/A
11:00 AM91 °FScattered clouds.17 mph46%29.56 "HgN/A
10:46 AM93 °FScattered clouds.18 mph44%29.56 "HgN/A
10:30 AM95 °FScattered clouds.16 mph41%29.56 "HgN/A
10:00 AM93 °FScattered clouds.16 mph44%29.56 "HgN/A
9:30 AM93 °FScattered clouds.16 mph47%29.59 "HgN/A
9:00 AM91 °FScattered clouds.16 mph49%29.59 "HgN/A
8:30 AM90 °FScattered clouds.16 mph52%29.59 "HgN/A
8:00 AM90 °FPassing clouds.15 mph52%29.59 "HgN/A
7:30 AM88 °FPassing clouds.16 mph59%29.59 "HgN/A
7:00 AM86 °FPassing clouds.16 mph59%29.56 "HgN/A
6:30 AM86 °FPassing clouds.17 mph59%29.56 "HgN/A
6:00 AM84 °FPassing clouds.17 mph62%29.56 "HgN/A
5:00 AM84 °FPassing clouds.16 mph62%29.56 "HgN/A
4:00 AM84 °FPassing clouds.17 mph66%29.56 "HgN/A
3:00 AM84 °FPassing clouds.15 mph62%29.56 "HgN/A
2:00 AM84 °FPassing clouds.14 mph66%29.59 "HgN/A
Weather by CustomWeather, © 2014

See weather overviewHow to use our weather pages